Location: Dackenheim
(49.5215°N, 8.1854°E)
Time: 17:27:48
(UTC+00:00)

Cosmos 1470 - Pass Details

Date: 19 May 2025
Orbit: 455 x 466 km, 82.5° (Epoch: 17 June)

Event Time Altitude Azimuth Distance (km) Brightness Sun altitude
Rises 23:03:02 0° 347° (NNW) 2,519 7.7 -20.3°
Reaches altitude 10° 23:05:08 10° 344° (NNW) 1,638 6.4 -20.4°
Maximum altitude 23:08:40 61° 264° (W) 537 2.6 -20.4°
Enters shadow 23:08:49 61° 249° (WSW) 540 2.6 -20.4°
